This demonstration page uses our WeatherBlox Daily Observations layout. Learn more.

Left ArrowRight Arrow

40.92945, -100.16068

Hourly Observations for December 31, 2020

Temp ( °F °C ) Dew Point ( °F °C ) Humidity (%) Winds ( mph kmh ) Pressure ( in mb ) Visibility ( mi km ) Precip ( " mm )
12:15 am 00:15 Clear with Mist and Fog 5 -15.1 1 -17.1 85 85 Calm 30.33 1027 4 6.43736 0 0
12:35 am 00:35 Clear with Mist and Fog 5 -15.2 1 -17.2 85 85 NE 5 7 30.32 1027 5 8.0467 0 0
12:55 am 00:55 Clear 6 -14.7 2 -16.6 86 86 ENE 3 6 30.3 1026 7 11.26538 0 0
1:15 am 01:15 Clear 6 -14.2 3 -16.1 86 86 ENE 3 6 30.3 1026 10 16.0934 0 0
1:35 am 01:35 Clear 5 -14.9 2 -16.9 85 85 ENE 5 7 30.29 1026 10 16.0934 0 0
1:55 am 01:55 Clear 7 -14.1 3 -16 86 86 Calm 30.29 1026 10 16.0934 0 0
2:10 am 02:10 Clear 7 -13.7 4 -15.6 86 86 Calm 30.28 1025 10 16.0934 0 0
2:35 am 02:35 Clear 5 -15 1 -17.1 84 84 Calm 30.29 1026 10 16.0934 0 0
2:55 am 02:55 Clear 4 -15.5 0 -17.6 84 84 Calm 30.29 1026 10 16.0934 0 0
3:15 am 03:15 Clear 4 -15.8 0 -18 83 83 NNW 3 6 30.3 1026 10 16.0934 0 0
3:35 am 03:35 Clear 4 -15.4 1 -17.5 84 84 Calm 30.3 1026 10 16.0934 0 0
3:55 am 03:55 Clear 4 -15.5 0 -17.7 83 83 Calm 30.28 1025 10 16.0934 0 0
4:15 am 04:15 Clear 3 -16 -1 -18.2 83 83 Calm 30.28 1025 10 16.0934 0 0
4:35 am 04:35 Clear 4 -15.7 0 -17.9 83 83 Calm 30.27 1025 10 16.0934 0 0
4:55 am 04:55 Clear 6 -14.5 2 -16.4 86 86 Calm 30.26 1025 10 16.0934 0 0
5:15 am 05:15 Clear 2 -16.6 -2 -18.9 83 83 Calm 30.28 1026 10 16.0934 0 0
5:35 am 05:35 Clear 2 -16.8 -2 -19.1 83 83 Calm 30.29 1026 10 16.0934 0 0
5:55 am 05:55 Partly Cloudy 2 -16.5 -1 -18.6 84 84 Calm 30.28 1025 10 16.0934 0 0
6:15 am 06:15 Cloudy with Freezing Fog 2 -16.5 -1 -18.6 84 84 NNW 3 6 30.28 1025 0.5 0.80467 0 0
6:35 am 06:35 Partly Cloudy 3 -16.2 -1 -18.5 83 83 NW 5 7 30.28 1025 7 11.26538 0 0
6:55 am 06:55 Clear 2 -16.4 -1 -18.6 83 83 Calm 30.27 1025 10 16.0934 0 0
7:15 am 07:15 Clear 3 -16.1 -1 -18.3 83 83 NNW 3 6 30.26 1025 10 16.0934 0 0
7:35 am 07:35 Clear 2 -16.8 -2 -19 83 83 NW 6 9 30.28 1025 10 16.0934 0 0
7:55 am 07:55 Partly Cloudy 2 -16.6 -2 -18.8 83 83 NW 3 6 30.27 1025 10 16.0934 0 0
8:15 am 08:15 Partly Cloudy 2 -16.6 -2 -18.8 83 83 Calm 30.27 1025 10 16.0934 0 0
8:35 am 08:35 Mostly Cloudy 2 -16.4 -1 -18.5 84 84 W 3 6 30.28 1025 10 16.0934 0 0
8:55 am 08:55 Mostly Cloudy 4 -15.4 1 -17.4 85 85 WNW 5 7 30.28 1025 10 16.0934 0 0
9:15 am 09:15 Partly Cloudy 7 -13.9 4 -15.8 86 86 Calm 30.26 1025 10 16.0934 0 0
9:35 am 09:35 Sunny 9 -13 5 -14.8 87 87 Calm 30.25 1024 10 16.0934 0 0
9:55 am 09:55 Sunny 10 -12.2 7 -14 87 87 SSE 5 7 30.27 1025 10 16.0934 0 0
10:15 am 10:15 Sunny 12 -11 9 -12.6 88 88 Calm 30.25 1024 10 16.0934 0 0
10:35 am 10:35 Sunny 14 -10.1 11 -11.7 88 88 Calm 30.24 1024 10 16.0934 0 0
10:55 am 10:55 Sunny 16 -9 13 -10.5 89 89 NW 5 7 30.23 1024 10 16.0934 0 0
11:15 am 11:15 Sunny 17 -8.2 15 -9.5 90 90 Calm 30.22 1023 10 16.0934 0 0
11:35 am 11:35 Sunny 19 -7 17 -8.2 91 91 Calm 30.21 1023 10 16.0934 0 0
11:55 am 11:55 Sunny 20 -6.6 18 -7.8 91 91 SE 6 9 30.2 1023 10 16.0934 0 0
12:15 pm 12:15 Sunny 24 -4.6 22 -5.8 91 91 S 10 17 30.18 1022 10 16.0934 0 0
12:35 pm 12:35 Sunny 25 -4.1 20 -6.9 81 81 SSW 7 11 30.17 1022 10 16.0934 0 0
12:55 pm 12:55 Sunny 27 -2.6 18 -7.7 68 68 SSW 7 11 30.14 1021 10 16.0934 0 0
1:15 pm 13:15 Sunny 29 -1.8 19 -7.3 66 66 SSW 7 11 30.13 1020 10 16.0934 0 0
1:35 pm 13:35 Sunny 29 -1.4 19 -7.1 66 66 SW 5 7 30.11 1020 10 16.0934 0 0
1:55 pm 13:55 Sunny 31 -0.6 20 -6.6 64 64 Calm 30.1 1019 10 16.0934 0 0
2:15 pm 14:15 Sunny 32 0.1 21 -6.1 63 63 S 7 11 30.12 1020 10 16.0934 0 0
2:35 pm 14:35 Sunny 32 0.1 21 -6 64 64 S 7 11 30.12 1020 10 16.0934 0 0
2:55 pm 14:55 Sunny 32 0.1 21 -6.1 63 63 S 7 11 30.12 1020 10 16.0934 0 0
3:15 pm 15:15 Sunny 33 0.4 22 -5.7 64 64 S 8 13 30.12 1020 10 16.0934 0 0
3:35 pm 15:35 Sunny 32 0 22 -5.8 65 65 S 10 17 30.14 1021 10 16.0934 0 0
3:55 pm 15:55 Sunny 32 -0.1 22 -5.6 67 67 S 8 13 30.14 1021 10 16.0934 0 0
4:15 pm 16:15 Sunny 31 -0.4 22 -5.5 69 69 SSE 7 11 30.14 1021 10 16.0934 0 0
4:35 pm 16:35 Sunny 31 -0.8 22 -5.6 70 70 SSE 6 9 30.15 1021 10 16.0934 0 0
4:55 pm 16:55 Sunny 31 -0.7 21 -5.9 68 68 SSE 6 9 30.14 1021 10 16.0934 0 0
5:15 pm 17:15 Sunny 30 -0.9 21 -5.9 69 69 SE 3 6 30.15 1021 10 16.0934 0 0
5:35 pm 17:35 Clear 29 -1.4 22 -5.7 73 73 SE 3 6 30.14 1021 10 16.0934 0 0
5:55 pm 17:55 Clear 25 -4 19 -7.1 79 79 Calm 30.17 1022 10 16.0934 0 0
6:15 pm 18:15 Clear 26 -3.4 20 -6.7 78 78 SE 3 6 30.17 1022 10 16.0934 0 0
6:35 pm 18:35 Clear 17 -8.3 14 -10.2 86 86 Calm 30.21 1023 10 16.0934 0 0
6:55 pm 18:55 Clear 17 -8.6 14 -10 90 90 ENE 3 6 30.22 1023 10 16.0934 0 0
7:15 pm 19:15 Clear 16 -8.9 13 -10.3 90 90 Calm 30.23 1024 10 16.0934 0 0
7:35 pm 19:35 Clear 15 -9.4 13 -10.6 91 91 N 3 6 30.23 1024 10 16.0934 0 0
7:55 pm 19:55 Clear 15 -9.7 12 -11 90 90 Calm 30.25 1024 10 16.0934 0 0
8:15 pm 20:15 Clear 14 -10 11 -11.7 88 88 Calm 30.25 1024 10 16.0934 0 0
8:35 pm 20:35 Clear 13 -10.3 11 -11.9 88 88 N 3 6 30.26 1025 10 16.0934 0 0
8:55 pm 20:55 Clear 14 -10.1 11 -11.6 89 89 Calm 30.26 1025 10 16.0934 0 0
9:15 pm 21:15 Clear 13 -10.8 10 -12.4 88 88 Calm 30.28 1025 7 11.26538 0 0
9:35 pm 21:35 Clear 12 -11.3 9 -12.8 89 89 Calm 30.31 1026 10 16.0934 0 0
9:55 pm 21:55 Clear 12 -11.1 10 -12.5 90 90 Calm 30.31 1027 10 16.0934 0 0
10:15 pm 22:15 Clear 13 -10.4 11 -11.8 90 90 WNW 5 7 30.3 1026 7 11.26538 0 0
10:35 pm 22:35 Clear 11 -11.6 9 -12.9 90 90 NW 5 7 30.3 1026 7 11.26538 0 0
10:55 pm 22:55 Partly Cloudy with Mist and Fog 10 -12.2 8 -13.6 89 89 WNW 5 7 30.3 1026 4 6.43736 0 0
11:15 pm 23:15 Partly Cloudy 10 -12.5 7 -14.1 88 88 WNW 5 7 30.31 1026 10 16.0934 0 0
11:35 pm 23:35 Partly Cloudy 10 -12.3 7 -13.7 89 89 WNW 7 11 30.3 1026 10 16.0934 0 0
11:55 pm 23:55 Clear 10 -12.2 7 -13.7 89 89 WNW 5 7 30.3 1026 10 16.0934 0 0

Powered by AerisWeather